Torna al catalogo

ATLAS 5 CENTAUR DEB

AttivoHEO
NORAD 44694·DEBRIS·🇺🇸 United States

Lanciato Oct 17, 2018 da Cape Canaveral Space Force Station

Loading…

Prossimi Passaggi (prossime 24 ore)

TLE

AggiornatoSource: Space-Track

Epoca: Sep 13, 2026, 18:03 UTC

1 44694U 18079BG  26256.75248747 -.00000166  00000-0  00000-0 0  9991
2 44694  13.7197  32.0731 4713127 313.2985  15.9357  1.77403981 48135

Traccia ATLAS 5 CENTAUR DEB in tempo reale con AllMySat

Download on the App Store